Tracking 27380 objects as of 6-Jun-2023
HD Live streaming from Space Station
objects crossing your sky now

SL-14 DEB

Track SL-14 DEB now!
10-day predictions


NORAD ID: 19139
Int'l Code: 1978-100M
Perigee: 1,701.5 km
Apogee: 1,945.5 km
Inclination: 82.1 °
Period: 123.0 minutes
Semi major axis: 8194 km
RCS: 0.0604 m2 (small)
Launch date: October 26, 1978
Source: Commonwealth of Independent States (former USSR) (CIS)
Launch site: PLESETSK MISSILE AND SPACE COMPLEX (PKMTR)

Note: This is SATELLITE DEBRIS
Your satellite tracking list
Your tracking list is empty




NASA's NSSDC Master Catalog

Two Line Element Set (TLE):
1 19139U 78100M   23156.52859184 -.00000003  00000-0 -16970-3 0  9999
2 19139  82.1407 303.2483 0148857 260.7217 213.3779 11.70365072497541
Source of the keplerian elements: AFSPC